This is the latest recevied weather packets stored in our database for station/object CE4ERM-13. If no packets are shown the sender has not sent any weather packets the latest 10 day(s).
| Time | Temp. | Humidity | Pressure | Rain* | Wind** | Luminosity | Snow |
|---|---|---|---|---|---|---|---|
| 1777803405 | 18.33° C | 43% | 1018.2 hPa | - | - | - | - |
| 1777802849 | 17.22° C | 42% | 1019.1 hPa | - | - | - | - |
| 1777802798 | 18.33° C | 43% | 1020.7 hPa | - | - | - | - |
| 1777802197 | 18.33° C | 43% | 1019.1 hPa | - | - | - | - |
| 1777801647 | 17.22° C | 42% | 1019.8 hPa | - | - | - | - |
| 1777801597 | 18.33° C | 42% | 1017.7 hPa | - | - | - | - |
| 1777801047 | 17.78° C | 42% | 1019.8 hPa | - | - | - | - |
| 1777800997 | 18.33° C | 44% | 1018.2 hPa | - | - | - | - |
| 1777800446 | 17.78° C | 42% | 1017.3 hPa | - | - | - | - |
| 1777799846 | 17.78° C | 42% | 1018 hPa | - | - | - | - |
| 1777799197 | 18.33° C | 43% | 1019.3 hPa | - | - | - | - |
| 1777798646 | 17.78° C | 42% | 1017.4 hPa | - | - | - | - |
| 1777798597 | 18.33° C | 43% | 1019.5 hPa | - | - | - | - |
| 1777798046 | 17.78° C | 42% | 1018.2 hPa | - | - | - | - |
| 1777797997 | 18.89° C | 42% | 1019 hPa | - | - | - | - |
| 1777797395 | 18.89° C | 43% | 1018.8 hPa | - | - | - | - |
| 1777796846 | 17.78° C | 42% | 1017.3 hPa | - | - | - | - |
| 1777796795 | 18.89° C | 42% | 1011.9 hPa | - | - | - | - |
| 1777796246 | 18.33° C | 42% | 1016.6 hPa | - | - | - | - |
| 1777796195 | 19.44° C | 41% | 1018.5 hPa | - | - | - | - |
| 1777795646 | 18.33° C | 42% | 1019.4 hPa | - | - | - | - |
| 1777795594 | 19.44° C | 41% | 1017.5 hPa | - | - | - | - |
| 1777795045 | 18.33° C | 42% | 1019.1 hPa | - | - | - | - |
| 1777794994 | 19.44° C | 42% | 1018.9 hPa | - | - | - | - |
| 1777794445 | 18.33° C | 42% | 1020.5 hPa | - | - | - | - |
* Rain since midnight (hover to see other rain measurements)
** Current wind speed in m/s (hover to see current wind gust speed)